Flag for Germany Weather past 2 weeks in Neu-Ulm, Bavaria, Germany

Now
64 °F

Partly sunny.


Feels Like: 64 °F
Forecast: 61 / 68 °F
Wind: 8 mph from Southwest

Location: Laupheim Airport

Current Time: Jul 29, 2014 at 9:10:18 PM

Latest Report: Jul 29, 2014 at 8:20 PM


Visibility: N/A

Pressure: 29.80 "Hg

Humidity: 88%

Dew point: 61 °F

Location of Neu-UlmLocation

Historic Weather in Neu-Ulm — Graph

°F

Neu-Ulm temperature yesterday

Maximum temperature yesterday: 77 °F (at 4:20 PM)
Minimum temperature yesterday: 59 °F (at 4:20 AM)
Average temperature yesterday: 67 °F

Past Weeks' High & Low Weather Summary

 TemperatureHumidityPressure
High90 °F (Jul 19, 5:20 PM)100% (Jul 15, 1:20 AM)30.21 "Hg (Jul 15, 1:20 AM)
Low55 °F (Jul 16, 4:20 AM)29% (Jul 19, 5:20 PM)29.80 "Hg (Jul 28, 5:20 PM)
Average67 °F74%30.00 "Hg
* Reported Jul 14 7:20 PM — Jul 29 7:20 PM, Neu-Ulm, Weather by CustomWeather, © 2014

Note: Actual official high and low records may vary slightly from our data, if they occured in-between our weather recording intervals... More about our weather records

Advertising

Neu-Ulm weather history for previous 24 hours

 ConditionsComfort  
Time TempWeatherWind HumidityBarometerVisibility
7:20 PM
Jul 29
66 °FPartly sunny.5 mph88%29.80 "HgN/A
6:20 PM64 °FBroken clouds.7 mph88%29.80 "HgN/A
5:20 PM64 °FBroken clouds.6 mph88%29.80 "HgN/A
4:20 PM66 °FPartly sunny.3 mph83%29.80 "HgN/A
3:20 PM64 °FLight rain. Partly sunny.5 mph88%29.80 "HgN/A
2:20 PM63 °FLight rain. Broken clouds.2 mph94%29.80 "HgN/A
1:20 PM63 °FBroken clouds.3 mph94%29.83 "HgN/A
12:20 PM63 °FPartly sunny.2 mph94%29.83 "HgN/A
11:20 AM63 °FPartly sunny.3 mph94%29.83 "HgN/A
10:20 AM61 °FLight rain. Cloudy.2 mph94%29.83 "Hg6 mi
9:58 AM61 °FRain. Mostly cloudy.1 mph94%29.83 "Hg5 mi
9:20 AM61 °FLight rain. Broken clouds.1 mph94%29.83 "HgN/A
8:20 AM61 °FPartly sunny.No wind94%29.83 "HgN/A
7:20 AM61 °FPartly sunny.1 mph94%29.80 "HgN/A
6:20 AM61 °FLow clouds.2 mph94%29.80 "HgN/A
5:20 AM59 °FPassing clouds.5 mph100%29.83 "HgN/A
4:20 AM59 °FPassing clouds.6 mph100%29.83 "Hg6 mi
3:20 AM59 °FLight rain. Passing clouds.6 mph100%29.83 "Hg5 mi
2:20 AM59 °FRain. Partly cloudy.7 mph100%29.83 "Hg5 mi
1:20 AM59 °FLight rain. Passing clouds.7 mph100%29.86 "Hg5 mi
12:20 AM59 °FPartly cloudy.3 mph100%29.86 "Hg5 mi
11:20 PM
Jul 28
61 °FStrong thunderstorms. Fog.5 mph100%29.86 "Hg2 mi
10:46 PM61 °FStrong thunderstorms. Fog.13 mph100%29.83 "Hg2 mi
10:20 PM64 °FStrong thunderstorms. Partly cloudy.16 mph88%29.83 "Hg5 mi
9:20 PM70 °FThundershowers. Partly sunny.6 mph78%29.80 "HgN/A
Weather by CustomWeather, © 2014

See weather overviewHow to use our weather pages